Location: Asheville, NC
(35.6000°N, 82.5500°W)
Time: 20:24:54
(UTC-04:00)

Vanguard 1 Rocket - Pass Details

Date: 10 March 2018
Orbit: 653 x 4224 km, 34.3° (Epoch: 20 June)

Event Time Altitude Azimuth Distance (km) Brightness Sun altitude
Rises 00:56:59 0° 286° (WNW) 6,471 11.8 -58.3°
Reaches altitude 10° 01:00:43 10° 282° (WNW) 5,838 11.4 -58.2°
Enters shadow 01:04:21 20° 277° (W) 5,310 11.1 -58.0°
Exits shadow 01:42:33 15° 143° (SE) 6,791 11.6 -55.4°
Drops below altitude 10° 01:45:09 10° 141° (SE) 7,161 11.8 -55.1°
Sets 01:50:28 0° 137° (SE) 7,934 12.1 -54.6°
